﻿_id,日時,平均風速(m/s),平均風向,最大瞬間風速(m/s),最大風速時風向,気温(℃),湿度(%),10分間移動積算雨量(mm),1時間移動積算雨量(mm),日雨量(mm),累計雨量(mm),日射(日積算)(MJ/m2),日照(日積算)(min),現地気圧(hPa),海面気圧(hPa)
1,2021-05-10T00:00:00,1.2,西,1.8,西北西,10.9,67.2,0,0,0,0,17.62,435,998.9,1012.9
2,2021-05-10T00:01:00,1.1,西,1.8,西北西,10.9,66.2,0,0,0,0,0,0,998.9,1012.9
3,2021-05-10T00:02:00,0.9,西,1.8,西北西,10.9,65.8,0,0,0,0,0,0,998.9,1012.9
4,2021-05-10T00:03:00,0.8,西,1.8,西北西,10.9,65.6,0,0,0,0,0,0,998.9,1012.9
5,2021-05-10T00:04:00,0.7,西,1.8,西北西,11.3,65.6,0,0,0,0,0,0,998.8,1012.8
6,2021-05-10T00:05:00,0.6,西南西,1.7,西北西,11.5,64.2,0,0,0,0,0,0,998.9,1012.9
7,2021-05-10T00:06:00,0.5,西南西,1.4,西北西,11.3,62.8,0,0,0,0,0,0,998.9,1012.9
8,2021-05-10T00:07:00,0.4,西南西,1.1,西北西,11,62.3,0,0,0,0,0,0,998.9,1012.9
9,2021-05-10T00:08:00,0.4,西南西,0.9,西,10.4,62.1,0,0,0,0,0,0,998.9,1012.9
10,2021-05-10T00:09:00,0.4,西南西,1.5,西南西,10.5,62.6,0,0,0,0,0,0,998.9,1012.9
11,2021-05-10T00:10:00,0.4,西南西,1.5,西南西,10.5,62.8,0,0,0,0,0,0,998.8,1012.8
12,2021-05-10T00:11:00,0.5,西南西,1.5,西南西,10.4,63.3,0,0,0,0,0,0,998.8,1012.8
13,2021-05-10T00:12:00,0.5,西南西,1.5,西南西,10.3,63.9,0,0,0,0,0,0,998.8,1012.8
14,2021-05-10T00:13:00,0.5,西南西,1.5,西南西,10.2,64.8,0,0,0,0,0,0,998.8,1012.8
15,2021-05-10T00:14:00,0.5,西南西,1.6,西,10.2,65.2,0,0,0,0,0,0,998.8,1012.8
16,2021-05-10T00:15:00,0.6,西南西,1.7,西,10.2,65.8,0,0,0,0,0,0,998.8,1012.8
17,2021-05-10T00:16:00,0.7,西南西,1.8,西,10.2,66.4,0,0,0,0,0,0,998.8,1012.8
18,2021-05-10T00:17:00,0.8,西南西,1.8,西,10.1,66.4,0,0,0,0,0,0,998.8,1012.8
19,2021-05-10T00:18:00,0.9,西南西,1.8,西,10.1,66.7,0,0,0,0,0,0,998.8,1012.8
20,2021-05-10T00:19:00,1,西南西,1.8,西,10.1,67,0,0,0,0,0,0,998.8,1012.8
21,2021-05-10T00:20:00,1,西,1.8,西,10.2,67.2,0,0,0,0,0,0,998.8,1012.8
22,2021-05-10T00:21:00,1.1,西,1.8,西,10.3,67.2,0,0,0,0,0,0,998.8,1012.8
23,2021-05-10T00:22:00,1,西,1.8,西,10.1,66.3,0,0,0,0,0,0,998.7,1012.7
24,2021-05-10T00:23:00,1,西,1.8,西,10.3,66.5,0,0,0,0,0,0,998.8,1012.8
25,2021-05-10T00:24:00,1,西,1.8,西,10.5,66.5,0,0,0,0,0,0,998.8,1012.8
26,2021-05-10T00:25:00,0.9,西,1.8,西,10.4,65.3,0,0,0,0,0,0,998.8,1012.8
27,2021-05-10T00:26:00,0.9,西,1.8,西,10.3,64.8,0,0,0,0,0,0,998.8,1012.8
28,2021-05-10T00:27:00,0.7,西南西,1.7,西北西,10.4,64.9,0,0,0,0,0,0,998.8,1012.8
29,2021-05-10T00:28:00,0.7,西南西,1.6,西,10.2,64.8,0,0,0,0,0,0,998.7,1012.7
30,2021-05-10T00:29:00,0.6,西南西,1.5,西,10.3,65,0,0,0,0,0,0,998.7,1012.7
31,2021-05-10T00:30:00,0.5,西南西,1.3,西,10.4,65,0,0,0,0,0,0,998.7,1012.7
32,2021-05-10T00:31:00,0.5,西,1.2,西南西,10.4,65,0,0,0,0,0,0,998.7,1012.7
33,2021-05-10T00:32:00,0.5,西,1.2,西南西,10.3,64.5,0,0,0,0,0,0,998.7,1012.7
34,2021-05-10T00:33:00,0.5,西,1.2,西南西,10.5,64.9,0,0,0,0,0,0,998.7,1012.7
35,2021-05-10T00:34:00,0.5,西北西,1.2,西南西,10.4,64.8,0,0,0,0,0,0,998.7,1012.7
36,2021-05-10T00:35:00,0.5,西北西,1.2,西南西,10.5,65.2,0,0,0,0,0,0,998.7,1012.7
37,2021-05-10T00:36:00,0.5,西北西,1,西北西,10.6,65.5,0,0,0,0,0,0,998.6,1012.6
38,2021-05-10T00:37:00,0.5,北西,1,西北西,10.7,65.4,0,0,0,0,0,0,998.6,1012.6
39,2021-05-10T00:38:00,0.5,北西,1,西北西,10.6,65.4,0,0,0,0,0,0,998.6,1012.6
40,2021-05-10T00:39:00,0.4,北西,0.8,西,10.6,65.7,0,0,0,0,0,0,998.6,1012.6
41,2021-05-10T00:40:00,0.4,北西,0.7,北西,10.4,65.9,0,0,0,0,0,0,998.6,1012.6
42,2021-05-10T00:41:00,0.4,北西,0.8,北西,10.2,66.2,0,0,0,0,0,0,998.6,1012.6
43,2021-05-10T00:42:00,0.5,北西,1.1,北西,10,66.3,0,0,0,0,0,0,998.6,1012.6
44,2021-05-10T00:43:00,0.5,北西,1.2,北西,10.3,67.9,0,0,0,0,0,0,998.6,1012.6
45,2021-05-10T00:44:00,0.5,北西,1.3,北西,10.2,68.1,0,0,0,0,0,0,998.6,1012.6
46,2021-05-10T00:45:00,0.6,北西,1.7,北西,10.2,68.8,0,0,0,0,0,0,998.6,1012.6
47,2021-05-10T00:46:00,0.7,北西,1.7,北西,10.3,69.6,0,0,0,0,0,0,998.6,1012.6
48,2021-05-10T00:47:00,0.7,北西,1.7,北西,10.3,69.5,0,0,0,0,0,0,998.6,1012.6
49,2021-05-10T00:48:00,0.8,西北西,1.7,北西,10.2,69.5,0,0,0,0,0,0,998.6,1012.6
50,2021-05-10T00:49:00,0.8,西北西,1.7,北西,10.3,70.2,0,0,0,0,0,0,998.5,1012.5
51,2021-05-10T00:50:00,0.9,西北西,1.7,北西,10.3,70.3,0,0,0,0,0,0,998.5,1012.5
52,2021-05-10T00:51:00,0.9,北西,1.7,北西,10.1,70.1,0,0,0,0,0,0,998.5,1012.5
53,2021-05-10T00:52:00,0.9,北西,1.7,北西,10.3,70.8,0,0,0,0,0,0,998.5,1012.5
54,2021-05-10T00:53:00,0.8,西北西,1.7,北西,10.1,70.7,0,0,0,0,0,0,998.5,1012.5
55,2021-05-10T00:54:00,0.8,北西,1.7,北西,9.9,70.8,0,0,0,0,0,0,998.5,1012.5
56,2021-05-10T00:55:00,0.7,北西,1.4,北西,10,71.4,0,0,0,0,0,0,998.4,1012.4
57,2021-05-10T00:56:00,0.6,北西,1.4,北西,10.1,72,0,0,0,0,0,0,998.4,1012.4
58,2021-05-10T00:57:00,0.6,北西,1.4,北西,10.1,71.9,0,0,0,0,0,0,998.4,1012.4
59,2021-05-10T00:58:00,0.5,北西,1.3,西北西,10.1,72.3,0,0,0,0,0,0,998.4,1012.4
60,2021-05-10T00:59:00,0.5,北北西,1.3,西北西,10.2,72.6,0,0,0,0,0,0,998.5,1012.5
61,2021-05-10T01:00:00,0.5,北北西,1.2,北西,10.3,72.3,0,0,0,0,0,0,998.5,1012.5
62,2021-05-10T01:01:00,0.5,北北西,1.6,北西,10.2,72.2,0,0,0,0,0,0,998.5,1012.5
63,2021-05-10T01:02:00,0.6,北北西,1.6,北西,10.1,72,0,0,0,0,0,0,998.5,1012.5
64,2021-05-10T01:03:00,0.7,北北西,2,西北西,10.3,72.5,0,0,0,0,0,0,998.5,1012.5
65,2021-05-10T01:04:00,0.8,北北西,2,西北西,10.2,72.2,0,0,0,0,0,0,998.5,1012.5
66,2021-05-10T01:05:00,1,北西,2,西北西,10,71,0,0,0,0,0,0,998.5,1012.5
67,2021-05-10T01:06:00,1,北西,2,西北西,9.9,70.5,0,0,0,0,0,0,998.6,1012.6
68,2021-05-10T01:07:00,1.1,北西,2,西北西,10,70.6,0,0,0,0,0,0,998.5,1012.5
69,2021-05-10T01:08:00,1.2,北西,2,西北西,9.9,71,0,0,0,0,0,0,998.5,1012.5
70,2021-05-10T01:09:00,1.3,西北西,2,西北西,9.7,70.5,0,0,0,0,0,0,998.6,1012.7
71,2021-05-10T01:10:00,1.4,西北西,2,西北西,9.8,71,0,0,0,0,0,0,998.6,1012.7
72,2021-05-10T01:11:00,1.3,西北西,2,西北西,9.8,71.3,0,0,0,0,0,0,998.6,1012.7
73,2021-05-10T01:12:00,1.3,西北西,2,西北西,9.8,71.7,0,0,0,0,0,0,998.6,1012.7
74,2021-05-10T01:13:00,1.3,西北西,1.6,西北西,9.9,71.8,0,0,0,0,0,0,998.6,1012.6
75,2021-05-10T01:14:00,1.3,西北西,1.6,西北西,9.9,71.7,0,0,0,0,0,0,998.6,1012.6
76,2021-05-10T01:15:00,1.2,西北西,1.5,北西,9.8,71.1,0,0,0,0,0,0,998.6,1012.7
77,2021-05-10T01:16:00,1.2,西北西,1.5,北西,9.7,71.3,0,0,0,0,0,0,998.6,1012.7
78,2021-05-10T01:17:00,1.2,西北西,1.5,北西,9.7,71.4,0,0,0,0,0,0,998.6,1012.7
79,2021-05-10T01:18:00,1.2,西北西,1.8,西,9.8,71.9,0,0,0,0,0,0,998.7,1012.8
80,2021-05-10T01:19:00,1.2,西北西,1.8,西,9.8,71.8,0,0,0,0,0,0,998.7,1012.8
81,2021-05-10T01:20:00,1.2,西北西,1.8,西,9.9,71.9,0,0,0,0,0,0,998.8,1012.9
82,2021-05-10T01:21:00,1.2,西北西,1.8,西,9.7,71.3,0,0,0,0,0,0,998.8,1012.9
83,2021-05-10T01:22:00,1.1,西北西,1.8,西,9.6,71.3,0,0,0,0,0,0,998.8,1012.9
84,2021-05-10T01:23:00,1,北西,1.8,西,9.6,72,0,0,0,0,0,0,998.8,1012.9
85,2021-05-10T01:24:00,0.9,北西,1.8,西,9.6,72.6,0,0,0,0,0,0,998.7,1012.8
86,2021-05-10T01:25:00,0.9,北西,1.8,西,9.7,72.5,0,0,0,0,0,0,998.8,1012.9
87,2021-05-10T01:26:00,0.8,北西,1.8,西,9.7,72.6,0,0,0,0,0,0,998.8,1012.9
88,2021-05-10T01:27:00,0.8,北北西,1.8,西,9.8,73,0,0,0,0,0,0,998.8,1012.9
89,2021-05-10T01:28:00,0.8,北北西,1.8,北北東,9.9,73.3,0,0,0,0,0,0,998.8,1012.9
90,2021-05-10T01:29:00,0.8,北,1.8,北北東,9.9,73.3,0,0,0,0,0,0,998.8,1012.9
91,2021-05-10T01:30:00,0.7,北,1.8,北北東,9.9,73.3,0,0,0,0,0,0,998.8,1012.9
92,2021-05-10T01:31:00,0.7,北北東,1.8,北北東,9.9,73.3,0,0,0,0,0,0,998.8,1012.9
93,2021-05-10T01:32:00,0.7,北北東,1.8,北北東,9.7,73.3,0,0,0,0,0,0,998.8,1012.9
94,2021-05-10T01:33:00,0.7,北北東,1.8,北北東,9.6,73.9,0,0,0,0,0,0,998.8,1012.9
95,2021-05-10T01:34:00,0.7,北北東,1.8,北北東,9.7,74.6,0,0,0,0,0,0,998.8,1012.9
96,2021-05-10T01:35:00,0.7,北北東,1.8,北北東,9.4,74.2,0,0,0,0,0,0,998.8,1012.9
97,2021-05-10T01:36:00,0.7,北北東,1.8,北北東,9.5,74.5,0,0,0,0,0,0,998.8,1012.9
98,2021-05-10T01:37:00,0.6,北北東,1.8,北北東,9.4,74.6,0,0,0,0,0,0,998.8,1012.9
99,2021-05-10T01:38:00,0.6,北,1.6,北北東,9.5,75.1,0,0,0,0,0,0,998.8,1012.9
100,2021-05-10T01:39:00,0.5,北,1.4,北北東,9.6,75.5,0,0,0,0,0,0,998.8,1012.9
101,2021-05-10T01:40:00,0.4,北,1.1,北,9.5,75.2,0,0,0,0,0,0,998.8,1012.9
102,2021-05-10T01:41:00,0.4,北,1.1,北,9.6,75.2,0,0,0,0,0,0,998.8,1012.9
103,2021-05-10T01:42:00,0.4,北,1.1,北,9.7,75.3,0,0,0,0,0,0,998.8,1012.9
104,2021-05-10T01:43:00,0.3,北,1,北,9.5,74.8,0,0,0,0,0,0,998.8,1012.9
105,2021-05-10T01:44:00,0.3,北,0.9,北北東,9.4,74.7,0,0,0,0,0,0,998.8,1012.9
106,2021-05-10T01:45:00,0.3,北,0.8,北北東,9.5,75.1,0,0,0,0,0,0,998.8,1012.9
107,2021-05-10T01:46:00,0.3,北,1.2,北北東,9.4,75.2,0,0,0,0,0,0,998.8,1012.9
108,2021-05-10T01:47:00,0.4,北,1.2,北北東,9.2,75.3,0,0,0,0,0,0,998.8,1012.9
109,2021-05-10T01:48:00,0.3,北,1.2,北北東,9.2,75.3,0,0,0,0,0,0,998.8,1012.9
110,2021-05-10T01:49:00,0.3,北北西,1.2,北北東,9.1,75.6,0,0,0,0,0,0,998.7,1012.8
111,2021-05-10T01:50:00,0.3,北北西,1.2,北北東,9,75.6,0,0,0,0,0,0,998.7,1012.8
112,2021-05-10T01:51:00,0.4,北北西,1.2,北北東,9.2,76.4,0,0,0,0,0,0,998.7,1012.8
113,2021-05-10T01:52:00,0.4,北北西,1.2,北北東,9.4,76.9,0,0,0,0,0,0,998.7,1012.8
114,2021-05-10T01:53:00,0.4,北北西,1.2,北北東,9.4,77.3,0,0,0,0,0,0,998.7,1012.8
115,2021-05-10T01:54:00,0.5,北北西,1.2,北北東,9.4,76.9,0,0,0,0,0,0,998.7,1012.8
116,2021-05-10T01:55:00,0.5,北北西,1.2,北北東,9.2,76.3,0,0,0,0,0,0,998.7,1012.8
117,2021-05-10T01:56:00,0.5,北西,1.2,北,9.2,76.1,0,0,0,0,0,0,998.7,1012.8
118,2021-05-10T01:57:00,0.5,北西,1.2,西,9.2,76.6,0,0,0,0,0,0,998.7,1012.8
119,2021-05-10T01:58:00,0.6,北西,1.2,西,9.2,76.7,0,0,0,0,0,0,998.7,1012.8
120,2021-05-10T01:59:00,0.6,西北西,1.2,西,8.9,76.6,0,0,0,0,0,0,998.8,1012.9
121,2021-05-10T02:00:00,0.7,西北西,1.2,西,8.9,76.5,0,0,0,0,0,0,998.7,1012.8
122,2021-05-10T02:01:00,0.8,西北西,1.2,西,8.9,77.2,0,0,0,0,0,0,998.7,1012.8
123,2021-05-10T02:02:00,0.8,西,1.2,西,8.8,77.8,0,0,0,0,0,0,998.7,1012.8
124,2021-05-10T02:03:00,0.8,西,1.2,西,8.7,77.8,0,0,0,0,0,0,998.7,1012.8
125,2021-05-10T02:04:00,0.7,西,1.2,西,8.8,77.9,0,0,0,0,0,0,998.7,1012.8
126,2021-05-10T02:05:00,0.7,西,1.2,西,8.8,79.1,0,0,0,0,0,0,998.7,1012.8
127,2021-05-10T02:06:00,0.7,西,1.2,西,9,78.6,0,0,0,0,0,0,998.7,1012.8
128,2021-05-10T02:07:00,0.7,西,1.2,西,9.3,79,0,0,0,0,0,0,998.7,1012.8
129,2021-05-10T02:08:00,0.7,西,1.1,西北西,9.2,78.8,0,0,0,0,0,0,998.7,1012.8
130,2021-05-10T02:09:00,0.7,西,1.3,西,9.1,78,0,0,0,0,0,0,998.7,1012.8
131,2021-05-10T02:10:00,0.8,西,1.8,西,8.9,77.8,0,0,0,0,0,0,998.7,1012.8
132,2021-05-10T02:11:00,0.9,西,2.3,西,8.6,77.1,0,0,0,0,0,0,998.7,1012.8
133,2021-05-10T02:12:00,1,西,2.3,西,8.4,76.6,0,0,0,0,0,0,998.7,1012.8
134,2021-05-10T02:13:00,1.1,西,2.3,西,8.4,76.4,0,0,0,0,0,0,998.7,1012.8
135,2021-05-10T02:14:00,1.1,西,2.3,西,8.3,75.8,0,0,0,0,0,0,998.7,1012.8
136,2021-05-10T02:15:00,1.2,西,2.3,西,8.2,76.3,0,0,0,0,0,0,998.8,1012.9
137,2021-05-10T02:16:00,1.3,西,2.3,西,8.3,76.7,0,0,0,0,0,0,998.8,1012.9
138,2021-05-10T02:17:00,1.3,西,2.3,西,8.3,76.7,0,0,0,0,0,0,998.8,1012.9
139,2021-05-10T02:18:00,1.4,西,2.3,西,8.2,76.4,0,0,0,0,0,0,998.8,1012.9
140,2021-05-10T02:19:00,1.4,西,2.3,西,8.4,76.8,0,0,0,0,0,0,998.8,1012.9
141,2021-05-10T02:20:00,1.4,西,2.3,西,8.5,76.4,0,0,0,0,0,0,998.8,1012.9
142,2021-05-10T02:21:00,1.4,西,2.3,西南西,8.5,75.1,0,0,0,0,0,0,998.8,1012.9
143,2021-05-10T02:22:00,1.4,西,2.2,西,8.5,74.5,0,0,0,0,0,0,998.8,1012.9
144,2021-05-10T02:23:00,1.4,西,2.2,西,8.5,73.8,0,0,0,0,0,0,998.8,1012.9
145,2021-05-10T02:24:00,1.4,西,2.2,西,8.6,73.4,0,0,0,0,0,0,998.8,1012.9
146,2021-05-10T02:25:00,1.4,西,2.2,西,8.8,73.8,0,0,0,0,0,0,998.8,1012.9
147,2021-05-10T02:26:00,1.4,西,2.2,西,8.8,73.8,0,0,0,0,0,0,998.8,1012.9
148,2021-05-10T02:27:00,1.3,西,2.2,西,9.1,74.3,0,0,0,0,0,0,998.8,1012.9
149,2021-05-10T02:28:00,1.2,西北西,2.2,西,8.9,73.6,0,0,0,0,0,0,998.8,1012.9
150,2021-05-10T02:29:00,1.1,西北西,2.2,西,8.9,73.9,0,0,0,0,0,0,998.9,1013
151,2021-05-10T02:30:00,1,西北西,2.2,西,8.9,74.2,0,0,0,0,0,0,998.9,1013
152,2021-05-10T02:31:00,0.9,西北西,2.2,西,8.8,74.1,0,0,0,0,0,0,998.9,1013
153,2021-05-10T02:32:00,0.8,北西,2.2,西,8.8,74.5,0,0,0,0,0,0,998.9,1013
154,2021-05-10T02:33:00,0.7,北西,1.5,西北西,8.8,74,0,0,0,0,0,0,998.9,1013
155,2021-05-10T02:34:00,0.6,北北西,1.3,西北西,8.8,74,0,0,0,0,0,0,998.9,1013
156,2021-05-10T02:35:00,0.6,北北西,1.3,西北西,8.7,74.7,0,0,0,0,0,0,998.9,1013
157,2021-05-10T02:36:00,0.5,北北西,1.2,西北西,8.7,74.8,0,0,0,0,0,0,998.9,1013
158,2021-05-10T02:37:00,0.4,北,1,北西,8.6,75.1,0,0,0,0,0,0,998.9,1013
159,2021-05-10T02:38:00,0.4,北,1,北西,8.7,75.9,0,0,0,0,0,0,998.9,1013
160,2021-05-10T02:39:00,0.4,北,1,北西,8.8,76.5,0,0,0,0,0,0,998.9,1013
161,2021-05-10T02:40:00,0.3,北北西,1,北西,8.9,77.1,0,0,0,0,0,0,998.9,1013
162,2021-05-10T02:41:00,0.2,静穏,0.7,北西,8.8,76.9,0,0,0,0,0,0,998.9,1013
163,2021-05-10T02:42:00,0.2,静穏,0.7,北西,8.7,77,0,0,0,0,0,0,998.9,1013
164,2021-05-10T02:43:00,0.3,北,0.8,北東,8.7,77.1,0,0,0,0,0,0,998.9,1013
165,2021-05-10T02:44:00,0.3,北,0.9,北北東,8.8,77.4,0,0,0,0,0,0,998.9,1013
166,2021-05-10T02:45:00,0.3,北,1,北東,8.9,77.6,0,0,0,0,0,0,998.9,1013
167,2021-05-10T02:46:00,0.4,北,1.1,北東,8.8,77.7,0,0,0,0,0,0,998.9,1013
168,2021-05-10T02:47:00,0.4,北,1.1,北東,8.9,77.3,0,0,0,0,0,0,998.9,1013
169,2021-05-10T02:48:00,0.5,北,1.1,北東,8.8,77.1,0,0,0,0,0,0,998.9,1013
170,2021-05-10T02:49:00,0.5,北北東,1.1,北東,8.7,77.4,0,0,0,0,0,0,998.9,1013
171,2021-05-10T02:50:00,0.5,北北東,1.1,北東,8.7,77.2,0,0,0,0,0,0,998.9,1013
172,2021-05-10T02:51:00,0.5,北北東,1.1,北東,8.7,77.6,0,0,0,0,0,0,998.9,1013
173,2021-05-10T02:52:00,0.5,北北東,1.1,北東,8.7,78,0,0,0,0,0,0,998.9,1013
174,2021-05-10T02:53:00,0.5,北北東,1.1,北東,8.7,78.2,0,0,0,0,0,0,998.9,1013
175,2021-05-10T02:54:00,0.5,北北東,1.1,北東,8.8,78.2,0,0,0,0,0,0,999,1013.1
176,2021-05-10T02:55:00,0.5,北北東,1.1,北東,8.8,78.3,0,0,0,0,0,0,999,1013.1
177,2021-05-10T02:56:00,0.4,北北東,1,北,8.7,78,0,0,0,0,0,0,999,1013.1
178,2021-05-10T02:57:00,0.5,北北東,1,北,8.8,78.2,0,0,0,0,0,0,998.9,1013
179,2021-05-10T02:58:00,0.5,北北東,1,北,8.8,78.6,0,0,0,0,0,0,999,1013.1
180,2021-05-10T02:59:00,0.5,北北東,1,北,8.7,78.2,0,0,0,0,0,0,999,1013.1
181,2021-05-10T03:00:00,0.5,北北東,1,北,8.8,78.7,0,0,0,0,0,0,999,1013.1
182,2021-05-10T03:01:00,0.5,北,1,北,8.7,78.7,0,0,0,0,0,0,999,1013.1
183,2021-05-10T03:02:00,0.5,北,1,北,8.7,78.4,0,0,0,0,0,0,999,1013.1
184,2021-05-10T03:03:00,0.4,北,1,北,8.7,78.9,0,0,0,0,0,0,999,1013.1
185,2021-05-10T03:04:00,0.4,北,1,北,8.5,79,0,0,0,0,0,0,999,1013.1
186,2021-05-10T03:05:00,0.4,北,1,北,8.6,79,0,0,0,0,0,0,998.9,1013
187,2021-05-10T03:06:00,0.4,北,1,北,8.5,79.3,0,0,0,0,0,0,998.9,1013
188,2021-05-10T03:07:00,0.3,北北西,1,北,8.6,79.5,0,0,0,0,0,0,998.9,1013
189,2021-05-10T03:08:00,0.3,北北西,0.8,北,8.5,79.8,0,0,0,0,0,0,998.9,1013
190,2021-05-10T03:09:00,0.3,北北西,1,北西,8.5,80,0,0,0,0,0,0,999,1013.1
191,2021-05-10T03:10:00,0.3,北西,1,北西,8.5,80.1,0,0,0,0,0,0,999,1013.1
192,2021-05-10T03:11:00,0.4,北西,1,北西,8.5,80.1,0,0,0,0,0,0,999,1013.1
193,2021-05-10T03:12:00,0.4,北西,1.1,西北西,8.6,80.3,0,0,0,0,0,0,999,1013.1
194,2021-05-10T03:13:00,0.5,北西,1.1,西北西,8.4,80.2,0,0,0,0,0,0,999,1013.1
195,2021-05-10T03:14:00,0.5,西北西,1.1,西北西,8.3,80.3,0,0,0,0,0,0,999,1013.1
196,2021-05-10T03:15:00,0.5,西北西,1.1,西北西,8.3,80.4,0,0,0,0,0,0,999,1013.1
197,2021-05-10T03:16:00,0.6,西北西,1.1,西北西,8.4,81.4,0,0,0,0,0,0,999,1013.1
198,2021-05-10T03:17:00,0.6,西北西,1.1,西北西,8.4,81.6,0,0,0,0,0,0,999,1013.1
199,2021-05-10T03:18:00,0.6,西北西,1.1,西北西,8.4,81.4,0,0,0,0,0,0,999,1013.1
200,2021-05-10T03:19:00,0.6,西北西,1.1,西北西,8.5,81.4,0,0,0,0,0,0,999,1013.1
201,2021-05-10T03:20:00,0.6,西北西,1.1,西北西,8.5,81.3,0,0,0,0,0,0,999,1013.1
202,2021-05-10T03:21:00,0.6,西北西,1.1,西北西,8.4,81.2,0,0,0,0,0,0,999,1013.1
203,2021-05-10T03:22:00,0.6,西北西,1.1,西南西,8.4,81.1,0,0,0,0,0,0,999,1013.1
204,2021-05-10T03:23:00,0.6,北西,1.2,北北東,8.5,81.7,0,0,0,0,0,0,999,1013.1
205,2021-05-10T03:24:00,0.6,北西,1.5,北東,8.5,81.6,0,0,0,0,0,0,999,1013.1
206,2021-05-10T03:25:00,0.6,北北西,1.5,北東,8.5,80.9,0,0,0,0,0,0,999,1013.1
207,2021-05-10T03:26:00,0.6,北北西,1.5,北東,8.6,81,0,0,0,0,0,0,999.1,1013.2
208,2021-05-10T03:27:00,0.6,北北西,1.5,北東,8.4,80.4,0,0,0,0,0,0,999.1,1013.2
209,2021-05-10T03:28:00,0.7,北北西,1.5,北東,8.4,80.3,0,0,0,0,0,0,999.1,1013.2
210,2021-05-10T03:29:00,0.7,北北西,1.5,北東,8.4,80.7,0,0,0,0,0,0,999.1,1013.2
211,2021-05-10T03:30:00,0.8,北西,1.5,北東,8.4,80.6,0,0,0,0,0,0,999.1,1013.2
212,2021-05-10T03:31:00,0.8,北西,1.5,北東,8.3,80.3,0,0,0,0,0,0,999.1,1013.2
213,2021-05-10T03:32:00,0.8,北西,1.5,北東,8.2,79.9,0,0,0,0,0,0,999.1,1013.2
214,2021-05-10T03:33:00,0.8,北西,1.5,北東,8.2,79.8,0,0,0,0,0,0,999.1,1013.2
215,2021-05-10T03:34:00,0.8,西北西,1.4,西北西,8,80.1,0,0,0,0,0,0,999.1,1013.3
216,2021-05-10T03:35:00,0.8,西北西,1.4,西北西,8,80.6,0,0,0,0,0,0,999.1,1013.3
217,2021-05-10T03:36:00,0.8,西北西,1.4,西北西,8,81,0,0,0,0,0,0,999.1,1013.3
218,2021-05-10T03:37:00,0.9,西北西,1.5,西北西,8.2,81.7,0,0,0,0,0,0,999.1,1013.2
219,2021-05-10T03:38:00,0.9,西北西,1.6,西北西,8.2,82,0,0,0,0,0,0,999.1,1013.2
220,2021-05-10T03:39:00,0.9,西北西,1.6,西北西,8.3,82.1,0,0,0,0,0,0,999.1,1013.2
221,2021-05-10T03:40:00,0.9,西北西,1.6,西北西,8.2,81.7,0,0,0,0,0,0,999,1013.1
222,2021-05-10T03:41:00,0.9,西北西,1.6,西北西,8.1,81.4,0,0,0,0,0,0,999.1,1013.2
223,2021-05-10T03:42:00,0.9,西北西,1.6,西北西,7.9,81.6,0,0,0,0,0,0,999.1,1013.3
224,2021-05-10T03:43:00,0.9,西北西,1.6,西北西,8,81.8,0,0,0,0,0,0,999.1,1013.3
225,2021-05-10T03:44:00,0.9,西北西,1.6,西北西,8,82.2,0,0,0,0,0,0,999.1,1013.3
226,2021-05-10T03:45:00,0.9,西北西,1.6,西北西,8.1,82.5,0,0,0,0,0,0,999.1,1013.2
227,2021-05-10T03:46:00,0.9,西,1.6,西北西,8.1,82.7,0,0,0,0,0,0,999.1,1013.2
228,2021-05-10T03:47:00,0.8,西,1.6,西北西,8.1,82.5,0,0,0,0,0,0,999.1,1013.2
229,2021-05-10T03:48:00,0.8,西,1.3,西,8,82,0,0,0,0,0,0,999.1,1013.3
230,2021-05-10T03:49:00,0.8,西,1.2,西北西,8.2,82.2,0,0,0,0,0,0,999.1,1013.2
231,2021-05-10T03:50:00,0.8,西,1.2,西北西,8.1,81.8,0,0,0,0,0,0,999.1,1013.2
232,2021-05-10T03:51:00,0.8,西,1.2,西北西,8.1,81.8,0,0,0,0,0,0,999.2,1013.3
233,2021-05-10T03:52:00,0.8,西,1.2,西北西,8.1,81.6,0,0,0,0,0,0,999.2,1013.3
234,2021-05-10T03:53:00,0.8,西,1.2,西北西,7.9,80.7,0,0,0,0,0,0,999.2,1013.4
235,2021-05-10T03:54:00,0.8,西,1.1,西,8,81.1,0,0,0,0,0,0,999.2,1013.4
236,2021-05-10T03:55:00,0.7,西,1.1,西,7.9,81.5,0,0,0,0,0,0,999.2,1013.4
237,2021-05-10T03:56:00,0.7,西,1.1,西,7.7,81.3,0,0,0,0,0,0,999.2,1013.4
238,2021-05-10T03:57:00,0.7,西,1.1,西,7.7,81.2,0,0,0,0,0,0,999.2,1013.4
239,2021-05-10T03:58:00,0.7,西,1.3,西,7.8,81.5,0,0,0,0,0,0,999.2,1013.4
240,2021-05-10T03:59:00,0.7,西,1.6,西南西,7.8,81.5,0,0,0,0,0,0,999.2,1013.4
241,2021-05-10T04:00:00,0.8,西,1.6,西南西,7.7,80.1,0,0,0,0,0,0,999.2,1013.4
242,2021-05-10T04:01:00,0.8,西,1.6,西南西,7.7,79.6,0,0,0,0,0,0,999.2,1013.4
243,2021-05-10T04:02:00,0.8,西,1.6,西南西,8,80.3,0,0,0,0,0,0,999.2,1013.4
244,2021-05-10T04:03:00,0.8,西,1.6,西南西,8,80,0,0,0,0,0,0,999.2,1013.4
245,2021-05-10T04:04:00,0.9,西,1.6,西南西,7.9,79.5,0,0,0,0,0,0,999.2,1013.4
246,2021-05-10T04:05:00,0.9,西,1.6,西南西,8,79.4,0,0,0,0,0,0,999.2,1013.4
247,2021-05-10T04:06:00,1,西,1.6,西南西,7.9,79,0,0,0,0,0,0,999.2,1013.4
248,2021-05-10T04:07:00,1,西,1.6,西南西,8.1,79,0,0,0,0,0,0,999.3,1013.4
249,2021-05-10T04:08:00,1.1,西,1.7,西北西,7.9,78.7,0,0,0,0,0,0,999.3,1013.5
250,2021-05-10T04:09:00,1.1,西,1.7,西北西,8,78.5,0,0,0,0,0,0,999.2,1013.4
251,2021-05-10T04:10:00,1.2,西,1.7,西北西,8.2,78.2,0,0,0,0,0,0,999.2,1013.3
252,2021-05-10T04:11:00,1.2,西,1.7,西北西,8.1,77.2,0,0,0,0,0,0,999.2,1013.3
253,2021-05-10T04:12:00,1.2,西,1.7,西北西,8,76.9,0,0,0,0,0,0,999.2,1013.4
254,2021-05-10T04:13:00,1.2,西,1.7,西北西,7.9,76.6,0,0,0,0,0,0,999.2,1013.4
255,2021-05-10T04:14:00,1.2,西,1.7,西北西,7.9,77,0,0,0,0,0,0,999.2,1013.4
256,2021-05-10T04:15:00,1.2,西,1.7,西北西,7.8,76.7,0,0,0,0,0,0,999.2,1013.4
257,2021-05-10T04:16:00,1.2,西,1.7,西北西,7.8,76.8,0,0,0,0,0,0,999.2,1013.4
258,2021-05-10T04:17:00,1.2,西,1.7,西北西,7.8,77,0,0,0,0,0,0,999.2,1013.4
259,2021-05-10T04:18:00,1.1,西,1.7,西北西,7.8,77.2,0,0,0,0,0,0,999.2,1013.4
260,2021-05-10T04:19:00,1.1,西,1.7,西北西,7.7,77.2,0,0,0,0,0,0,999.2,1013.4
261,2021-05-10T04:20:00,1,西,1.4,西,7.8,77.6,0,0,0,0,0,0,999.3,1013.5
262,2021-05-10T04:21:00,1,西,1.4,西,7.9,78.6,0,0,0,0,0,0,999.2,1013.4
263,2021-05-10T04:22:00,1,西,1.4,西,7.9,77.8,0,0,0,0,0,0,999.2,1013.4
264,2021-05-10T04:23:00,0.9,西,1.2,西,7.9,77.9,0,0,0,0,0,0,999.2,1013.4
265,2021-05-10T04:24:00,0.9,西,1.2,西,7.5,77.2,0,0,0,0,0,0,999.2,1013.4
266,2021-05-10T04:25:00,0.8,西,1.2,西,7.4,77.1,0,0,0,0,0,0,999.3,1013.5
267,2021-05-10T04:26:00,0.7,西,1.2,西,7.7,78.2,0,0,0,0,0,0,999.3,1013.5
268,2021-05-10T04:27:00,0.7,西,1.2,西,7.3,77.6,0,0,0,0,0,0,999.2,1013.4
269,2021-05-10T04:28:00,0.6,西,1.2,西,7.2,77,0,0,0,0,0,0,999.3,1013.5
270,2021-05-10T04:29:00,0.5,西南西,1.2,西,7.2,78,0,0,0,0,0,0,999.3,1013.5
271,2021-05-10T04:30:00,0.5,西南西,1.2,西,7.6,79.2,0,0,0,0,0,0,999.3,1013.5
272,2021-05-10T04:31:00,0.5,西南西,1.2,西,7.9,80,0,0,0,0,0,0,999.2,1013.4
273,2021-05-10T04:32:00,0.4,西,1.1,西南西,8,79.2,0,0,0,0,0,0,999.2,1013.4
274,2021-05-10T04:33:00,0.4,西,0.9,西南西,7.8,78.2,0,0,0,0,0,0,999.3,1013.5
275,2021-05-10T04:34:00,0.4,西,0.9,西南西,7.9,77.4,0,0,0,0,0,0,999.3,1013.5
276,2021-05-10T04:35:00,0.4,西,0.9,西南西,7.7,76.9,0,0,0,0,0,0,999.3,1013.5
277,2021-05-10T04:36:00,0.5,西,0.9,西南西,7.7,77,0,0,0,0,0,0,999.3,1013.5
278,2021-05-10T04:37:00,0.5,西,0.9,西南西,7.8,77.6,0,0,0,0,0,0,999.3,1013.5
279,2021-05-10T04:38:00,0.6,西,1,西北西,7.6,77.2,0,0,0,0,0,0,999.2,1013.4
280,2021-05-10T04:39:00,0.6,西,1.1,西,7.6,77.6,0,0,0,0,0,0,999.2,1013.4
281,2021-05-10T04:40:00,0.6,西北西,1.1,西,7.5,77.8,0,0,0,0,0,0,999.3,1013.5
282,2021-05-10T04:41:00,0.6,西北西,1.1,西,7.5,78.3,0,0,0,0,0,0,999.3,1013.5
283,2021-05-10T04:42:00,0.6,西北西,1.1,西,7.5,79.1,0,0,0,0,0,0,999.3,1013.5
284,2021-05-10T04:43:00,0.6,西北西,1.1,西,7.5,79.4,0,0,0,0,0,0,999.3,1013.5
285,2021-05-10T04:44:00,0.7,西北西,1.1,西,7.6,80,0,0,0,0,0,0,999.3,1013.5
286,2021-05-10T04:45:00,0.7,西北西,1.1,西,7.5,80.1,0,0,0,0,0,0,999.3,1013.5
287,2021-05-10T04:46:00,0.7,西北西,1.1,西,7.7,80.7,0,0,0,0,0,0,999.3,1013.5
288,2021-05-10T04:47:00,0.7,西北西,1.1,西,7.6,80.9,0,0,0,0,0,0,999.3,1013.5
289,2021-05-10T04:48:00,0.8,西北西,1.2,西北西,7.4,80.2,0,0,0,0,0,0,999.3,1013.5
290,2021-05-10T04:49:00,0.8,西北西,1.3,西,7.5,80.6,0,0,0,0,0,0,999.3,1013.5
291,2021-05-10T04:50:00,0.8,西北西,1.4,西,7.6,81,0,0,0,0,0,0,999.3,1013.5
292,2021-05-10T04:51:00,0.9,西北西,1.4,西,7.5,80.9,0,0,0,0,0,0,999.3,1013.5
293,2021-05-10T04:52:00,0.9,西,1.4,西,7.5,80.7,0,0,0,0,0,0,999.3,1013.5
294,2021-05-10T04:53:00,1,西,1.4,西,7.4,80.9,0,0,0,0,0,0,999.3,1013.5
295,2021-05-10T04:54:00,0.9,西,1.4,西,7.4,80.7,0,0,0,0,0,0,999.3,1013.5
296,2021-05-10T04:55:00,0.9,西北西,1.4,西,7.5,81.3,0,0,0,0,0,0,999.3,1013.5
297,2021-05-10T04:56:00,1,西北西,1.4,西,7.3,80.8,0,0,0,0,0,0,999.3,1013.5
298,2021-05-10T04:57:00,1,西北西,1.4,西,7.4,81.2,0,0,0,0,0,0,999.3,1013.5
299,2021-05-10T04:58:00,0.9,西北西,1.4,西,7.6,81.9,0,0,0,0,0,0,999.3,1013.5
300,2021-05-10T04:59:00,0.9,西北西,1.4,西,7.5,81.6,0,0,0,0,0,0,999.3,1013.5
301,2021-05-10T05:00:00,0.9,西北西,1.3,西,7.7,81.3,0,0,0,0,0,0,999.3,1013.5
302,2021-05-10T05:01:00,0.9,西,1.5,西,7.6,81,0,0,0,0,0,0,999.3,1013.5
303,2021-05-10T05:02:00,0.9,西,1.5,西,7.2,79.8,0,0,0,0,0,0,999.3,1013.5
304,2021-05-10T05:03:00,1,西,1.5,西,7.2,80.2,0,0,0,0,0,0,999.3,1013.5
305,2021-05-10T05:04:00,1,西,1.5,西,7.2,80.8,0,0,0,0,0,0,999.3,1013.5
306,2021-05-10T05:05:00,1,西,1.5,西,7.3,81.5,0,0,0,0,0,0,999.3,1013.5
307,2021-05-10T05:06:00,1,西,1.5,西,7.2,81.8,0,0,0,0,0,0,999.3,1013.5
308,2021-05-10T05:07:00,1,西,1.5,西,7.5,82.4,0,0,0,0,0,0,999.3,1013.5
309,2021-05-10T05:08:00,0.9,西,1.5,西,7.4,82.2,0,0,0,0,0,0,999.3,1013.5
310,2021-05-10T05:09:00,0.9,西,1.5,西,7.4,81.6,0,0,0,0,0,0,999.3,1013.5
311,2021-05-10T05:10:00,0.8,西,1.5,西,7.4,81.3,0,0,0,0,0,0,999.3,1013.5
312,2021-05-10T05:11:00,0.7,西,1.2,西北西,7.3,81.1,0,0,0,0,0.01,0,999.3,1013.5
313,2021-05-10T05:12:00,0.7,西,1.2,西北西,7.4,81.3,0,0,0,0,0.01,0,999.3,1013.5
314,2021-05-10T05:13:00,0.6,西,1.2,西北西,7.4,81.6,0,0,0,0,0.01,0,999.3,1013.5
315,2021-05-10T05:14:00,0.5,西,1.2,西北西,7.2,81.2,0,0,0,0,0.01,0,999.4,1013.6
316,2021-05-10T05:15:00,0.4,西,0.9,西,7.3,81.1,0,0,0,0,0.01,0,999.4,1013.6
317,2021-05-10T05:16:00,0.4,西,1,西南西,7.5,81.3,0,0,0,0,0.01,0,999.5,1013.7
318,2021-05-10T05:17:00,0.4,西,1,西南西,7.5,81.4,0,0,0,0,0.01,0,999.5,1013.7
319,2021-05-10T05:18:00,0.5,西,1,西南西,7.5,81,0,0,0,0,0.01,0,999.5,1013.7
320,2021-05-10T05:19:00,0.5,西,1,西南西,7.4,80.7,0,0,0,0,0.01,0,999.5,1013.7
321,2021-05-10T05:20:00,0.5,西,1,西南西,7.5,81,0,0,0,0,0.02,0,999.5,1013.7
322,2021-05-10T05:21:00,0.5,西,1,西南西,7.4,81.1,0,0,0,0,0.02,0,999.5,1013.7
323,2021-05-10T05:22:00,0.4,西,1,西南西,7.5,80.9,0,0,0,0,0.02,0,999.6,1013.8
324,2021-05-10T05:23:00,0.5,西北西,1,西南西,7.5,80.8,0,0,0,0,0.02,0,999.6,1013.8
325,2021-05-10T05:24:00,0.5,西北西,1,西南西,7.5,80.5,0,0,0,0,0.02,0,999.6,1013.8
326,2021-05-10T05:25:00,0.4,西北西,1,西南西,7.6,80.4,0,0,0,0,0.02,0,999.6,1013.8
327,2021-05-10T05:26:00,0.4,西北西,1,西南西,7.7,80,0,0,0,0,0.03,0,999.6,1013.8
328,2021-05-10T05:27:00,0.4,西北西,0.8,西北西,7.7,80,0,0,0,0,0.03,0,999.6,1013.8
329,2021-05-10T05:28:00,0.4,西北西,0.8,西北西,7.9,79.9,0,0,0,0,0.03,0,999.6,1013.8
330,2021-05-10T05:29:00,0.4,北西,0.9,北西,7.6,78.9,0,0,0,0,0.03,0,999.7,1013.9
331,2021-05-10T05:30:00,0.5,北西,1,北西,7.5,78.4,0,0,0,0,0.04,0,999.6,1013.8
332,2021-05-10T05:31:00,0.5,北西,1,北西,7.7,79.2,0,0,0,0,0.04,0,999.6,1013.8
333,2021-05-10T05:32:00,0.6,西北西,1,北西,7.6,79.3,0,0,0,0,0.04,0,999.6,1013.8
334,2021-05-10T05:33:00,0.6,西北西,1,北西,7.6,79.2,0,0,0,0,0.05,0,999.7,1013.9
335,2021-05-10T05:34:00,0.6,西北西,1,北西,7.6,79.2,0,0,0,0,0.05,0,999.7,1013.9